Home > Time Zones > World Clock > Weather > France > Pau > Past weeks

Flag for France Weather past 2 weeks in Pau, France

45 °F


Feels Like: 45 °F
Forecast: 40 / 51 °F
Wind: 2 mph from East

Location: Pau Airport

Current Time: Nov 27, 2015 at 5:58:14 AM

Latest Report: Nov 27, 2015 at 4:30 AM

Visibility: N/A

Pressure: 30.12 "Hg

Humidity: 93%

Dew point: 43 °F

Location of PauLocation

Historic Weather in Pau — Graph


Pau temperature yesterday

Maximum temperature yesterday: 54 °F (at 3:30 PM)
Minimum temperature yesterday: 48 °F (at 9:30 AM)
Average temperature yesterday: 50 °F

Past Weeks' High & Low Weather Summary

High70 °F (Nov 18, 3:00 PM)100% (Nov 13, 12:00 AM)30.57 "Hg (Nov 13, 12:00 AM)
Low28 °F (Nov 23, 4:30 AM)40% (Nov 20, 1:00 PM)29.80 "Hg (Nov 21, 2:30 AM)
Average51 °F83%30.24 "Hg
* Reported Nov 12 4:00 AM — Nov 27 4:30 AM, Pau, Weather by CustomWeather, © 2015

Note: Actual official high and low records may vary slightly from our data, if they occured in-between our weather recording intervals... More about our weather records


Pau weather history for previous 24 hours

Time TempWeatherWind HumidityBarometerVisibility
4:30 AM
Fri, Nov 27
45 °FOvercast.2 mph93%30.12 "HgN/A
4:00 AM45 °FOvercast.3 mph100%30.15 "HgN/A
3:30 AM46 °FLow clouds.No wind93%30.15 "HgN/A
3:00 AM46 °FOvercast.3 mph93%30.15 "HgN/A
2:30 AM46 °FOvercast.2 mph93%30.15 "HgN/A
2:00 AM46 °FOvercast.No wind93%30.15 "HgN/A
1:30 AM46 °FOvercast.2 mph93%30.15 "HgN/A
1:00 AM46 °FOvercast.1 mph87%30.15 "HgN/A
12:30 AM46 °FOvercast.2 mph93%30.18 "HgN/A
12:00 AM48 °FMostly cloudy.2 mph94%30.18 "HgN/A
11:00 PM
Thu, Nov 26
48 °FOvercast.No wind94%30.18 "HgN/A
10:30 PM48 °FMostly cloudy.2 mph94%30.18 "HgN/A
9:30 PM48 °FMostly cloudy.2 mph94%30.18 "HgN/A
9:00 PM50 °FLight rain. Mostly cloudy.3 mph94%30.18 "HgN/A
8:30 PM50 °FPassing clouds.3 mph94%30.18 "HgN/A
8:00 PM50 °FPartly cloudy.3 mph94%30.15 "HgN/A
7:30 PM50 °FPartly cloudy.1 mph94%30.15 "HgN/A
7:00 PM50 °FPartly cloudy.1 mph94%30.15 "HgN/A
6:30 PM50 °FMostly cloudy.2 mph94%30.15 "HgN/A
6:00 PM50 °FOvercast.3 mph94%30.15 "HgN/A
5:30 PM50 °FMostly cloudy.7 mph94%30.12 "HgN/A
5:00 PM52 °FLight rain. Cloudy.6 mph94%30.12 "Hg4 mi
4:30 PM52 °FPartly sunny.3 mph88%30.12 "HgN/A
4:00 PM52 °FOvercast.2 mph88%30.12 "HgN/A
3:30 PM54 °FMore clouds than sun.3 mph82%30.12 "HgN/A
3:00 PM52 °FBroken clouds.3 mph88%30.12 "HgN/A
2:30 PM52 °FPartly sunny.1 mph88%30.15 "HgN/A
2:00 PM50 °FMostly cloudy.2 mph94%30.15 "HgN/A
1:30 PM50 °FBroken clouds.2 mph94%30.15 "HgN/A
1:00 PM50 °FPartly sunny.2 mph94%30.15 "HgN/A
12:30 PM50 °FRain. Fog.1 mph94%30.18 "Hg2 mi
12:00 PM50 °FLight rain. Fog.2 mph94%30.18 "Hg2 mi
11:30 AM50 °FMostly cloudy.5 mph94%30.18 "HgN/A
11:00 AM48 °FDrizzle. Fog.3 mph100%30.18 "Hg3 mi
10:30 AM48 °FDrizzle. Fog.3 mph100%30.18 "Hg2 mi
10:00 AM48 °FDrizzle. Fog.5 mph100%30.18 "Hg2 mi
9:30 AM48 °FDrizzle. Fog.8 mph100%30.18 "Hg2 mi
9:00 AM50 °FLight rain. Fog.7 mph94%30.15 "Hg2 mi
8:30 AM50 °FDrizzle. Fog.5 mph94%30.15 "Hg3 mi
7:30 AM50 °FMostly cloudy.8 mph94%30.15 "HgN/A
7:00 AM50 °FLight rain. Fog.12 mph94%30.15 "Hg2 mi
6:30 AM50 °FRain. Fog.10 mph100%30.12 "Hg2 mi
6:00 AM50 °FLight rain. Passing clouds.6 mph94%30.12 "Hg4 mi
5:30 AM50 °FLight rain. Fog.8 mph94%30.15 "Hg2 mi
Weather by CustomWeather, © 2015

See weather overviewHow to use our weather pages